Location: McFarlands Corners
(41.4117°N, 81.3382°W)
Time: 07:08:06
(UTC+00:00)

Tiros 1 - Pass Details

Date: 25 February 2026
Orbit: 618 x 649 km, 48.4° (Epoch: 9 March)

Event Time Altitude Azimuth Distance (km) Brightness Sun altitude
Rises 12:17:31 0° 258° (WSW) 2,927 9.9 1.3°
Reaches altitude 10° 12:19:55 10° 264° (W) 2,015 9.1 1.7°
Maximum altitude 12:24:26 51° 340° (NNW) 791 7.5 2.6°
Drops below altitude 10° 12:28:56 10° 57° (ENE) 2,000 10.4 3.4°
Sets 12:31:18 0° 63° (ENE) 2,903 11.3 3.8°
